Regional Weather Roundup
Issued by NWS

Home | Current Version | Previous Version | Graphics & Text | Print | Product List | Glossary On
Versions: 1 2 3 4 5 6 7 8 9 10 11 12 13 14 15 16 17 18 19 20 21 22 23 24 25 26 27 28 29 30 31 32 33 34 35 36 37 38 39 40 41 42 43 44 45 46 47 48 49 50
000
ASUS43 KMKX 010620
RWRWI

WISCONSIN REGIONAL WEATHER ROUNDUP
NATIONAL WEATHER SERVICE MILWAUKEE/SULLIVAN WI
1200 AM CST SUN MAR 01 2015

NOTE: "FAIR" INDICATES FEW OR NO CLOUDS BELOW 12,000 FEET WITH NO
SIGNIFICANT WEATHER AND/OR OBSTRUCTIONS TO VISIBILITY.

WIZ001-002-006>008-014>016-023>028-010700-
NORTHWEST WISCONSIN

CITY           SKY/WX    TMP DP  RH WIND       PRES   REMARKS
SUPERIOR ARPT  PTCLDY    13   3  65 CALM      30.26S
6HR MIN TEMP:  13; 6HR MAX TEMP:  19;

ASHLAND        CLOUDY    14   0  53 S10       30.27F WCI   1
6HR MIN TEMP:  13; 6HR MAX TEMP:  18;

HAYWARD        CLOUDY    12   1  61 S12       30.26F WCI  -2
6HR MIN TEMP:  11; 6HR MAX TEMP:  14;

SIREN          MOCLDY    12   4  69 S10       30.28F WCI  -1
6HR MIN TEMP:  12; 6HR MAX TEMP:  16;

CUMBERLAND     FLURRIES  10   3  72 S9        30.28F WCI  -2
RICE LAKE      MOCLDY    12   1  63 S8        30.32S WCI   0
6HR MIN TEMP:  11; 6HR MAX TEMP:  15;

CHETEK         PTCLDY    12   1  63 S6        30.31F WCI   2
6HR MIN TEMP:  11; 6HR MAX TEMP:  14;

LADYSMITH      CLOUDY    13   1  59 S9        30.30F WCI   0
6HR MIN TEMP:  10; 6HR MAX TEMP:  14;

EAU CLAIRE     CLOUDY    14   1  56 S8        30.34F WCI   3
6HR MIN TEMP:  11; 6HR MAX TEMP:  16;

MENOMONIE      CLOUDY    13   3  64 S8        30.34F WCI   2
6HR MIN TEMP:  12; 6HR MAX TEMP:  16;

NEW RICHMOND   FLURRIES  12   5  73 S8        30.30F WCI   1
6HR MIN TEMP:  10; 6HR MAX TEMP:  14;

OSCEOLA        CLOUDY    13   5  73 S8        30.33F WCI   1
6HR MIN TEMP:  12; 6HR MAX TEMP:  16;

$$

WIZ003>005-009-010-017-018-010700-
NORTH CENTRAL WISCONSIN

CITY           SKY/WX    TMP DP  RH WIND       PRES   REMARKS
MANITOWISH WTR MOCLDY     9  -4  54 SW7       30.24F WCI  -2
6HR MIN TEMP:   9; 6HR MAX TEMP:  14;

ARBOR VITAE    FAIR      11  -2  54 SW5       30.25S WCI   3
6HR MIN TEMP:   9; 6HR MAX TEMP:  17;

WOODRUFF       FAIR      11  -2  54 SW5       30.25S WCI   3
6HR MIN TEMP:   9; 6HR MAX TEMP:  17;

RHINELANDER    PTCLDY    11  -3  53 SW12      30.27F WCI  -3
6HR MIN TEMP:   9; 6HR MAX TEMP:  13;

EAGLE RIVER    MOCLDY    11  -5  48 SW8G17    30.24F WCI  -1
6HR MIN TEMP:   9; 6HR MAX TEMP:  15;

LAND O LAKES   CLOUDY    11  -3  53 SW5       30.24F WCI   3
6HR MIN TEMP:  10; 6HR MAX TEMP:  16;

PHILLIPS       MOCLDY    10  -2  58 S6        30.27S WCI   0
6HR MIN TEMP:   9; 6HR MAX TEMP:  14;

TOMAHAWK       PTCLDY    10  -2  58 CALM      30.29F
6HR MIN TEMP:   7; 6HR MAX TEMP:  12;

MEDFORD        CLEAR      8  -2  62 S7        30.29F WCI  -3
6HR MIN TEMP:   8; 6HR MAX TEMP:  12;

MERRILL        PTCLDY    12  -1  54 SW7       30.32S WCI   2
6HR MIN TEMP:  12; 6HR MAX TEMP:  15;

$$

WIZ029-030-035-036-043>047-010700-
CENTRAL WISCONSIN

CITY           SKY/WX    TMP DP  RH WIND       PRES   REMARKS
WAUSAU         MOCLDY    12  -1  56 SW9       30.33F WCI   0
6HR MIN TEMP:  12; 6HR MAX TEMP:  15;

MOSINEE        MOCLDY    12   1  62 SW10      30.35S WCI  -1
MARSHFIELD     CLOUDY    12   0  58 S9        30.34F WCI   0
6HR MIN TEMP:  12; 6HR MAX TEMP:  16;

STEVENS POINT  CLOUDY    11   1  63 S7        30.37S WCI   1
6HR MIN TEMP:  11; 6HR MAX TEMP:  15;

WAUPACA        CLOUDY    16   2  52 S7        30.40F WCI   7
6HR MIN TEMP:  15; 6HR MAX TEMP:  18;

WAUTOMA        CLOUDY    14   1  56 S7        30.41F WCI   4
6HR MIN TEMP:  14; 6HR MAX TEMP:  16;

WISC RAPIDS    CLOUDY    13  -1  54 SW7       30.39F WCI   3
6HR MIN TEMP:  13; 6HR MAX TEMP:  15;

CAMP DOUGLAS   CLOUDY    12   2  62 S8        30.39F WCI   1
6HR MIN TEMP:  12; 6HR MAX TEMP:  16;

$$

WIZ011>013-019>022-031-037>040-048>050-010700-
NORTHEAST WISCONSIN

CITY           SKY/WX    TMP DP  RH WIND       PRES   REMARKS
ANTIGO         CLOUDY    11   0  62 SW10      30.30F WCI  -3
6HR MIN TEMP:   8; 6HR MAX TEMP:  11;

SHAWANO        CLOUDY    16   3  55 SW5       30.38F WCI   9
6HR MIN TEMP:  15; 6HR MAX TEMP:  18;

OCONTO         CLOUDY    15   2  57 SW6       30.40F WCI   6
6HR MIN TEMP:  13; 6HR MAX TEMP:  15;

STURGEON BAY   CLOUDY    16   1  53 SW14      30.41F WCI   1
6HR MIN TEMP:  12; 6HR MAX TEMP:  18;

GREEN BAY      CLOUDY    15   4  61 SW12      30.41F WCI   2
6HR MIN TEMP:  13; 6HR MAX TEMP:  16;

MANITOWOC      CLOUDY    17   6  62 SW8       30.43F WCI   7
6HR MIN TEMP:  16; 6HR MAX TEMP:  18;

APPLETON       CLOUDY    14   3  62 S10       30.39F WCI   1
CLINTONVILLE   CLOUDY    16   3  57 SW7       30.39F WCI   6
OSHKOSH        CLOUDY    14   3  61 S10       30.41F WCI   1
6HR MIN TEMP:  10; 6HR MAX TEMP:  15;

$$

WIZ032>034-041-042-053>061-010700-
SOUTHWEST WISCONSIN

CITY           SKY/WX    TMP DP  RH WIND       PRES   REMARKS
LA CROSSE      CLOUDY    14   1  56 S7        30.42S WCI   4
6HR MIN TEMP:  13; 6HR MAX TEMP:  18;

SPARTA         CLEAR     11   1  62 SW3       30.41F
6HR MIN TEMP:  11; 6HR MAX TEMP:  17;

VIROQUA        CLEAR      8   2  76 S6        30.36F WCI  -2
6HR MIN TEMP:   8; 6HR MAX TEMP:  15;

BOSCOBEL       CLOUDY     7   1  76 CALM      30.44F
6HR MIN TEMP:   7; 6HR MAX TEMP:  16;

PRAIRIE DU CHI FLURRIES   9   1  69 CALM      30.44S
6HR MIN TEMP:   8; 6HR MAX TEMP:  17;

PLATTEVILLE    PTCLDY     8   5  89 E3        30.41S
6HR MIN TEMP:   8; 6HR MAX TEMP:  14;

$$

WIZ056-057-062-063-064-067-068-010700-
SOUTH CENTRAL WISCONSIN

CITY           SKY/WX    TMP DP  RH WIND       PRES   REMARKS
REEDSBURG      CLOUDY    12   4  73 S6        30.41S WCI   2
6HR MIN TEMP:  11; 6HR MAX TEMP:  15;

BARABOO/DELLS  FLURRIES  11   4  73 SW3       30.40F
6HR MIN TEMP:  10; 6HR MAX TEMP:  15;

LONE ROCK      CLOUDY     8   2  76 CALM      30.44S
6HR MIN TEMP:   6; 6HR MAX TEMP:  15;

MINERAL POINT  LGT SNOW  12   9  85 SE6       30.39F WCI   3
MADISON        LGT SNOW  14   9  80 S5        30.41F WCI   6
6HR MIN TEMP:  14; 6HR MAX TEMP:  16; 6HR PCP: TRACE;

MIDDLETON      CLOUDY    15  10  81 CALM      30.42S
6HR MIN TEMP:  13; 6HR MAX TEMP:  16;

WATERTOWN      MOCLDY    13  10  89 CALM      30.41F
6HR MIN TEMP:  12; 6HR MAX TEMP:  15;

MONROE         MOCLDY    12  10  92 S3        30.40S
JANESVILLE     FLURRIES  16  12  86 CALM      30.42F
$$

WIZ051-052-058>065-066-070>072-010700-
SOUTHEAST WISCONSIN

CITY           SKY/WX    TMP DP  RH WIND       PRES   REMARKS
MILWAUKEE      LGT SNOW  17  11  77 S6        30.44F WCI   9
6HR MIN TEMP:  17; 6HR MAX TEMP:  19; 6HR PCP: TRACE;

WAUKESHA       FLURRIES  14   9  79 CALM      30.43F
MILWAUKEE/TIMM CLOUDY    18  10  73 S6        30.45F WCI   9
RACINE         FLURRIES  18  11  74 SW5       30.46F WCI  11
6HR MIN TEMP:  17; 6HR MAX TEMP:  20; 6HR PCP: TRACE;

BURLINGTON     FLURRIES  14  10  83 CALM      30.43F
6HR MIN TEMP:  14; 6HR MAX TEMP:  15;

KENOSHA        FLURRIES  16  12  84 CALM      30.44F
6HR MIN TEMP:  16; 6HR MAX TEMP:  20; 6HR PCP: TRACE;

FOND DU LAC    FLURRIES  15   6  67 SW12      30.41F WCI   2
6HR MIN TEMP:  14; 6HR MAX TEMP:  16; 6HR PCP: TRACE;

SHEBOYGAN      CLOUDY    16   7  67 SW10      30.43F WCI   4
6HR MIN TEMP:  14; 6HR MAX TEMP:  17;

WEST BEND      FLURRIES  18   9  68 S6        30.42F WCI   9
JUNEAU         LGT SNOW  13  10  85 S7        30.42F WCI   3
6HR MIN TEMP:  12; 6HR MAX TEMP:  14;

$$

LSZ147-162-010700-
LAKE SUPERIOR

STATION/POSITION TIME  TEMP    WIND        PRES    WAVE
                       AIR SEA DIR/SP/G            HT/PER
                 (UTC) (F)     (DEG/KT/KT) (MB)    (FT/S)
DEVILS ISLAND    0600   15     200/ 10/ 14 1025.8F
PORT WING        0500   15     190/ 12/ 18 1025.1F
SAXON HARBOR     0500   16     210/  8/ 16 1026.1S
$$

LMZ867-665-643>646-010700-
LAKE MICHIGAN

STATION/POSITION TIME  TEMP    WIND        PRES    WAVE



USA.gov is the U.S. government's official web portal to all federal, state and local government web resources and services.